Notices

What's New in latest Release from April 7th, 2021:

- Updated Glossary, including Speed of Maximum Gust, and Total Hourly Precipitation

- Updated national and regional climate services offices contacts and prices information

- Addition of station inventory lists for 1981-2010, 1971-2000, and 1961-1990 Normals.

If you haven't already, please take our survey and provide feedback about our website: https://eccc.sondage-survey.ca/f/LanguageSelection.aspx?s=442ca660-fcf1-47c0-95a9-59707d6fd709

Hourly Data Report for November 03, 2016

VICTORIA UNIVERSITY CS
BRITISH COLUMBIA

48°27'25.200" N
123°18'16.600" W
60.10 m
1018598
71783
WYJ

Download Data

Hourly Data (November 2016)
Hourly Data Report for November 3, 2016
TIME
LST
Temp Definition
°C
Dew Point Definition
°C
Rel Hum Definition
%
Precip. Amount Definition
mm

Wind Dir Definition
10's deg

Wind Spd Definition
km/h
Visibility Definition
km
Stn Press Definition
kPa
Hmdx Definition


Wind Chill Definition


Weather Definition


00:00 10.6 9.7 94 0.0 9 2   101.28     LegendNANA
01:00 10.4 10.0 97 0.0 9 5   101.30     LegendNANA
02:00 9.7 9.3 97 0.0 7 5   101.35     LegendNANA
03:00 8.7 8.4 98 0.0 7 4   101.41     LegendNANA
04:00 9.2 9.0 99 0.0 9 3   101.37     LegendNANA
05:00 8.8 8.6 99 0.0 15 1   101.44     LegendNANA
06:00 8.6 8.5 99 0.2 34 6   101.45     LegendNANA
07:00 8.6 8.4 99 0.0 4 3   101.47     LegendNANA
08:00 8.9 8.8 99 0.0 11 1   101.54     LegendNANA
09:00 10.1 10.0 99 0.0 10 2   101.62     LegendNANA
10:00 11.3 9.5 89 0.0 14 2   101.62     LegendNANA
11:00 13.5 9.8 78 0.0 14 3   101.61     LegendNANA
12:00 14.3 9.0 70 0.0 12 3   101.62     LegendNANA
13:00 14.6 9.7 73 0.0 9 5   101.55     LegendNANA
14:00 14.0 9.5 74 0.0 15 3   101.48     LegendNANA
15:00 14.5 8.1 65 0.0 10 1   101.44     LegendNANA
16:00 13.1 9.1 77 0.0 23 1   101.36     LegendNANA
17:00 12.0 9.1 82 0.0 15 3   101.29     LegendNANA
18:00 11.5 9.1 85 0.0 10 2   101.28     LegendNANA
19:00 9.4 8.0 92 0.0 0 1   101.25     LegendNANA
20:00 9.8 9.0 95 0.0 35 8   101.23     LegendNANA
21:00 9.6 7.9 89 0.0 31 4   101.21     LegendNANA
22:00 9.0 8.2 95 0.0 32 5   101.20     LegendNANA
23:00 9.9 8.5 91 0.0 34 11   101.12     LegendNANA

Notes on Data Quality.

Legend

  • E = Estimated
  • M = Missing
  • NA = Not Available*
  • [empty] = Indicates an unobserved value
Date modified: